FLX226S SBUL-SBBR

Flight info

Callsign FLX226S
Flight time N/A
Altitude 28000
Route VALAP UZ25 PABIN
Aircraft A20N/M-SDE2E3FGHIRWXY/LB1

Departure

Time 2026-05-06 23:22
Airport Ten. Cel. Aviador César Bombonato Airport (SBUL)

Arrival

Time N/A
Airport Presidente Juscelino Kubitschek International Airport (SBBR)
Time Latitude Longitude Altitude Speed Heading
2026-05-06 23:09 -18.88961 -48.23024 3081 ft 0 kts 248°
2026-05-06 23:15 -18.88960 -48.23022 3081 ft 1 kts 248°
2026-05-06 23:15 -18.88954 -48.23008 3081 ft 2 kts 246°
2026-05-06 23:16 -18.88950 -48.22996 3081 ft 2 kts 248°
2026-05-06 23:16 -18.88944 -48.22982 3082 ft 1 kts 248°
2026-05-06 23:16 -18.88940 -48.22973 3082 ft 2 kts 224°
2026-05-06 23:16 -18.88934 -48.22968 3082 ft 1 kts 200°
2026-05-06 23:17 -18.88928 -48.22966 3082 ft 0 kts 200°
2026-05-06 23:18 -18.88929 -48.22966 3082 ft 1 kts 200°
2026-05-06 23:19 -18.88960 -48.22979 3081 ft 7 kts 201°
2026-05-06 23:19 -18.89028 -48.22992 3081 ft 11 kts 149°
2026-05-06 23:19 -18.89080 -48.22918 3081 ft 13 kts 168°
2026-05-06 23:19 -18.89174 -48.22923 3080 ft 13 kts 172°
2026-05-06 23:20 -18.89211 -48.22967 3079 ft 3 kts
2026-05-06 23:20 -18.89209 -48.22965 3079 ft 0 kts 22°
2026-05-06 23:21 -18.89121 -48.22927 3080 ft 46 kts 22°
2026-05-06 23:21 -18.88576 -48.22686 3085 ft 119 kts 21°
2026-05-06 23:21 -18.87620 -48.22266 3154 ft 168 kts 24°
2026-05-06 23:22 -18.86527 -48.21771 3634 ft 176 kts 25°
2026-05-06 23:22 -18.85367 -48.21233 4053 ft 188 kts 26°
2026-05-06 23:22 -18.84124 -48.20663 4457 ft 201 kts 25°
2026-05-06 23:22 -18.82779 -48.20070 4793 ft 221 kts 23°
2026-05-06 23:23 -18.81195 -48.19604 5085 ft 247 kts
2026-05-06 23:23 -18.79421 -48.19453 5552 ft 266 kts
2026-05-06 23:23 -18.77524 -48.19335 6243 ft 274 kts
2026-05-06 23:23 -18.75651 -48.19201 7106 ft 275 kts
2026-05-06 23:24 -18.73724 -48.19058 7942 ft 276 kts
2026-05-06 23:24 -18.71810 -48.18917 8729 ft 279 kts
2026-05-06 23:24 -18.69873 -48.18776 9494 ft 282 kts
2026-05-06 23:24 -18.67893 -48.18632 10233 ft 285 kts
2026-05-06 23:25 -18.65879 -48.18488 10780 ft 295 kts
2026-05-06 23:25 -18.63761 -48.18334 11110 ft 313 kts
2026-05-06 23:25 -18.61532 -48.18174 11406 ft 330 kts
2026-05-06 23:25 -18.59159 -48.18003 11690 ft 347 kts
2026-05-06 23:26 -18.56690 -48.17826 11959 ft 363 kts
2026-05-06 23:26 -18.54112 -48.17642 12278 ft 376 kts
2026-05-06 23:26 -18.51504 -48.17456 12793 ft 381 kts
2026-05-06 23:26 -18.48830 -48.17266 13362 ft 385 kts
2026-05-06 23:27 -18.46132 -48.17073 13911 ft 389 kts
2026-05-06 23:27 -18.43425 -48.16878 14431 ft 393 kts
2026-05-06 23:27 -18.40669 -48.16682 14950 ft 397 kts
2026-05-06 23:27 -18.37883 -48.16482 15452 ft 400 kts
2026-05-06 23:28 -18.35092 -48.16282 15937 ft 404 kts
2026-05-06 23:28 -18.32258 -48.16078 16409 ft 407 kts
2026-05-06 23:28 -18.29410 -48.15874 16864 ft 411 kts
2026-05-06 23:28 -18.26561 -48.15669 17302 ft 414 kts
2026-05-06 23:29 -18.23660 -48.15486 17740 ft 418 kts
2026-05-06 23:29 -18.20737 -48.15454 18148 ft 422 kts 359°
2026-05-06 23:29 -18.17778 -48.15608 18539 ft 427 kts 356°
2026-05-06 23:29 -18.14785 -48.15901 18920 ft 432 kts 355°
2026-05-06 23:30 -18.11743 -48.16219 19268 ft 438 kts 355°
2026-05-06 23:30 -18.08685 -48.16539 19438 ft 447 kts 355°